Regional Weather Roundup
Issued by NWS Newport/Morehead, NC

Current Version | Previous Version | Graphics & Text | Print | Product List | Glossary On
Versions: 1 2 3 4 5 6 7 8 9 10 11 12 13 14 15 16 17 18 19 20 21 22 23 24 25 26 27 28 29 30 31 32 33 34 35 36 37 38 39 40 41 42 43 44 45 46 47 48 49 50
000
ASUS42 KMHX 280224
RWRMHX
WEATHER ROUNDUP FOR EASTERN NORTH CAROLINA
NATIONAL WEATHER SERVICE NEWPORT/MOREHEAD CITY NC
1000 PM EDT MON APR 27 2015

NOTE: "FAIR" INDICATES FEW OR NO CLOUDS BELOW 12,000 FEET
WITH NO SIGNIFICANT WEATHER AND/OR OBSTRUCTIONS TO VISIBILITY

NCZ015>017-031-032-045>047-102-103-280300-
NORTH COAST

CITY           SKY/WX    TMP DP  RH WIND       PRES   REMARKS
EDENTON        CLOUDY    57  42  58 N5        29.87S
ELIZABETH CITY LGT RAIN  54  43  66 NW5       29.86R
KITTY HAWK     CLOUDY    52  42  69 CALM      29.83R
MANTEO         CLOUDY    53  40  62 N3        29.85S

$$

NCZ045>047-081-094-103-104-280300-
CENTRAL COAST

CITY           SKY/WX    TMP DP  RH WIND       PRES   REMARKS
FRISCO         PTCLDY    50  38  63 NE5       29.83R
SWANQUARTER      N/A     54 N/A N/A NE3       29.82R

$$

NCZ095-097-098-100-101-280300-
SOUTHERN COAST

CITY           SKY/WX    TMP DP  RH WIND       PRES   REMARKS
BEAUFORT       PTCLDY    59  45  59 N6        29.84R
CEDAR ISLAND     N/A     59 N/A N/A NE9       29.88R
JACKSONVILLE   MOCLDY    59  41  51 N10       29.85R
PINEY ISLAND   PTCLDY   N/A N/A N/A NE8       29.84R
WILMINGTON     MOCLDY    57  52  83 CALM      29.86R


$$

NCZ011>013-027>030-043-044-078>080-089-090>093-098-280300-
COASTAL PLAIN

CITY           SKY/WX    TMP DP  RH WIND       PRES   REMARKS
AHOSKIE          N/A     54  39  57 CALM      29.88S
CLINTON        MOCLDY    59  44  57 CALM      29.89R
ELIZABETHTOWN  MOCLDY    59  39  46 CALM      29.89R
GOLDSBORO      CLOUDY    61  36  39 NW10      29.85R
GREENVILLE     MOCLDY    59  37  44 N12       29.89R
HAVELOCK       PTCLDY    61  39  44 N9        29.85R
KENANSVILLE    MOCLDY    59  38  47 NW3       29.89R
KINSTON        MOCLDY    57  41  54 NW3       29.87R
NEW BERN       MOCLDY    61  39  44 N8        29.86R
RICHLANDS      MOCLDY    55  39  54 CALM      29.88R
ROCKY MOUNT    PTCLDY    57  39  51 N7        29.89R
WASHINGTON     MOCLDY    57  39  52 N9        29.88R
WHITEVILLE     MOCLDY    57  46  68 CALM      29.88R

$$

AMZ130-135-150-152-154-156-158-170-250-252-270-ANZ085-086-088-633-658-670-280300-
MARINE OBSERVATIONS

STATION/POSITION TIME  TEMP    WIND        PRES    WAVE   SWELL
                       AIR SEA DIR/SP/G            HT/PER HT/PER
                 (UTC) (F)     (DEG/KT/KT) (MB)    (FT/S) (FT/S)
CHESAPEAKE LIGHT 0200   56     330/ 16/ 17 1011.0
64 E VA BEACH    0150   55 55  300/ 10/ 12 1009.4    2/ 8   2/ 8
DUCK             0200   54 55  320/  4/  4 1009.5
2 E DUCK         0111      55                N/A     2/ 7
OREGON INLET     0200   53 58  340/  2/  3 1010.5
13E OREGON INLT  NOT AVBL
HATTERAS CG      0106   57 64   40/  7/ 11 1009.3
DIAMOND BUOY     0150   62 74   20/ 12/ 17 1009.9    4/ 8   3/ 8
CAPE LOOKOUT     0200   62     310/  7/  9 1010.1
BEAUFORT LAB     0106   62 62  320/  5/  7 1008.9
27 SE WRIGHTSVLE 0200   64 72  330/  6/  8   N/A
5 SE WRIGHTSVLE  0108   66 65  350/  8/ 10 1010.1
225 S CAPE HAT   0150   66 71  340/ 14/ 16 1010.2    5/ 6   3/ 6
41 SE CHARLESTON 0150   66 71  210/  4/  6 1011.8    3/ 6   2/ 6

$$


USA.gov is the U.S. government's official web portal to all federal, state and local government web resources and services.